sat.trackr.live / text

‹ back to catalog

STARLINK-5919

NORAD 55927 · 2023-037P

PAYLOAD ACTIVE UNKNOWN

§ Identity

Operator
Country
US
Launch date
2023-03-17
Launch site
AFWTR
Launch vehicle
Mass (kg)
RCS (m²)

Purposes: comms

External: N2YO · Heavens-Above · Gunter

§ Orbital elements

Epoch: 2026-09-20T04:24:52.404768Z

Period
96.11 min
Inclination
70.0003°
Eccentricity
0.0002475
Mean motion
14.98330739 rev/d
Perigee alt
570.3 km
Apogee alt
573.8 km
Semi-major
6,950.2 km
B*
7.6134e-5
RAAN
173.9435°
Arg perigee
270.0770°
Mean anomaly
90.0106°
Rev number
19,261

§ Raw data

STARLINK-59191 55927U 23037P   26263.18393987  .00000816  00000+0  76134-4 0  99992 55927  70.0003 173.9435 0002475 270.0770  90.0106 14.98330739192615

JSON: /api/v1/satellites/55927 · /tle

For live sub-satellite position, see the globe view (requires WebGL).

§ Visibility from observer

Set your observer location to see the next 7 days of passes ≥ 10°. The values pass through the URL so the page stays shareable.

No JS? Fill the form by hand. The geolocation button needs JavaScript.